Weather reports worldwide

Advertisment
Lake Vyrnwy, United Kingdom (3410): temperature & dewpoint: 21.09.2020 17:00:00 - 27.09.2020 17:00:00 (BST)Lake Vyrnwy, United Kingdom (3410): temperature -20cm & temperature -100cm: 21.09.2020 17:00:00 - 27.09.2020 17:00:00 (BST)Lake Vyrnwy, United Kingdom (3410): wind speed & gusts: 21.09.2020 17:00:00 - 27.09.2020 17:00:00 (BST)Lake Vyrnwy, United Kingdom (3410): wind direction: 21.09.2020 17:00:00 - 27.09.2020 17:00:00 (BST)Lake Vyrnwy, United Kingdom (3410): reduced air pressure: 21.09.2020 17:00:00 - 27.09.2020 17:00:00 (BST)Lake Vyrnwy, United Kingdom (3410): visibility: 21.09.2020 17:00:00 - 27.09.2020 17:00:00 (BST)Lake Vyrnwy, United Kingdom (3410): sunshine duration: 21.09.2020 17:00:00 - 27.09.2020 17:00:00 (BST)Lake Vyrnwy, United Kingdom (3410): precipitation: 21.09.2020 17:00:00 - 27.09.2020 17:00:00 (BST)
Date & Time tt [°C] td [°C] tt -20cm [°C] tt -100cm [°C] ff [km/h] ff [kn] fx [km/h] fx [kn] dd ppp [hPa] vv [km] sd [min] rr [mm]
27.09.2020 17:00:00 13,5 5,2 - - 8 4 - - NW 1014,6 55 60 0,0
27.09.2020 16:00:00 13,8 3,7 - - 8 4 - - WNW 1015,0 65 60 0,0
27.09.2020 15:00:00 13,5 3,9 - - 9 5 - - WNW 1015,4 60 60 0,0
27.09.2020 14:00:00 12,4 4,5 - - 13 7 - - NNW 1016,0 50 60 0,0
27.09.2020 13:00:00 11,7 3,7 - - 16 9 - - NNW 1016,1 50 60 0,0
27.09.2020 12:00:00 10,9 4,4 - - 18 10 - - N 1016,1 40 60 0,0
27.09.2020 11:00:00 9,9 3,8 - - 13 7 - - N 1016,6 40 60 0,0
27.09.2020 10:00:00 8,6 5,3 - - 18 10 - - N 1017,1 30 60 0,0
27.09.2020 09:00:00 7,6 4,9 - - 9 5 - - NNW 1017,1 30 60 0,0
27.09.2020 08:00:00 6,2 4,4 - - 5 3 - - S 1017,1 26 18 0,0
27.09.2020 07:00:00 6,2 4,6 - - 16 9 - - NNW 1017,0 26 0 0,0
27.09.2020 06:00:00 6,5 4,8 - - 16 9 - - NW 1017,0 26 0 0,0
27.09.2020 05:00:00 6,6 4,7 - - 8 4 - - NNW 1017,0 30 0 0,0
27.09.2020 04:00:00 6,4 4,9 - - 9 5 - - NNW 1017,5 30 0 0,0
27.09.2020 03:00:00 6,1 4,8 - - 4 2 - - WNW 1018,2 30 0 0,0
27.09.2020 02:00:00 7,0 5,6 - - 8 4 - - NNE 1018,0 35 0 0,0
27.09.2020 01:00:00 7,4 6,0 - - 13 7 - - N 1017,7 45 - 0,0
27.09.2020 00:00:00 7,3 5,6 - - 9 5 - - N 1018,0 45 0 0,0
26.09.2020 23:00:00 6,6 3,5 - - 5 3 - - WNW 1018,5 35 0 0,0
26.09.2020 22:00:00 7,6 4,3 - - 11 6 - - N 1018,2 40 0 0,0
26.09.2020 21:00:00 8,2 4,7 - - 13 7 - - NNE 1018,1 40 0 0,0
26.09.2020 20:00:00 8,3 4,7 - - 11 6 - - N 1017,9 40 0 0,0
26.09.2020 19:00:00 8,3 4,6 - - 13 7 - - N 1017,6 50 0 0,0
26.09.2020 18:00:00 8,4 4,0 - - 15 8 - - N 1017,5 50 30 0,0
26.09.2020 17:00:00 9,0 2,8 - - 24 13 - - N 1016,7 70 54 0,0
26.09.2020 16:00:00 9,1 3,0 - - 18 10 - - N 1016,4 75 30 0,0
26.09.2020 15:00:00 9,0 3,5 - - 21 11 - - N 1016,0 70 30 0,0
26.09.2020 14:00:00 9,6 3,4 - - 21 11 - - N 1015,7 75 54 0,0
26.09.2020 13:00:00 9,3 3,1 - - 24 13 46 25 N 1015,7 75 30 0,0
26.09.2020 12:00:00 8,9 3,0 - - 24 13 - - N 1015,5 75 36 0,0
26.09.2020 11:00:00 7,6 2,9 - - 18 10 - - N 1015,7 70 24 0,0
26.09.2020 10:00:00 6,7 2,6 - - 16 9 - - NNW 1015,4 60 30 0,0
26.09.2020 09:00:00 6,8 3,1 - - 13 7 - - NNW 1014,9 60 54 0,0
26.09.2020 08:00:00 5,3 1,8 - - 16 9 - - NNW 1014,9 50 6 0,0
26.09.2020 07:00:00 4,4 2,5 - - 11 6 - - NNW 1014,7 45 0 0,0
26.09.2020 06:00:00 4,5 2,2 - - 9 5 - - NW 1014,3 55 0 0,0
26.09.2020 05:00:00 4,8 3,3 - - 8 4 - - NW 1014,3 45 0 0,0
26.09.2020 04:00:00 4,7 3,7 - - 8 4 - - N 1014,2 55 0 0,0
26.09.2020 03:00:00 5,2 2,0 - - 18 10 - - N 1014,3 75 0 0,2
26.09.2020 02:00:00 5,4 4,0 - - 18 10 - - N 1014,0 5 0 1,6
26.09.2020 01:00:00 6,0 3,9 - - 16 9 - - NW 1014,2 3,9 - 0,0
26.09.2020 00:00:00 6,3 4,0 - - 4 2 - - NE 1014,0 25 0 0,0
25.09.2020 23:00:00 6,4 3,9 - - 15 8 - - W 1014,0 40 0 0,2
25.09.2020 22:00:00 7,1 4,1 - - 13 7 - - NW 1013,6 35 0 0,0
25.09.2020 21:00:00 6,7 4,2 - - 8 4 - - W 1013,3 45 0 0,0
25.09.2020 20:00:00 6,9 4,7 - - 8 4 - - W 1013,2 50 0 0,0
25.09.2020 19:00:00 6,9 4,7 - - 11 6 - - W 1012,5 65 0 0,0
25.09.2020 18:00:00 8,6 4,0 - - 15 8 - - WNW 1011,6 75 30 0,0
25.09.2020 17:00:00 10,4 4,6 - - 18 10 - - N 1010,7 75 48 0,0
25.09.2020 16:00:00 10,9 3,8 - - 18 10 - - NW 1010,7 75 36 0,0
25.09.2020 15:00:00 10,3 3,1 - - 24 13 52 28 NNW 1010,4 75 48 0,0
25.09.2020 14:00:00 10,0 2,9 - - 24 13 50 27 NW 1009,8 70 48 0,0
25.09.2020 13:00:00 10,2 3,8 - - 24 13 - - NNW 1009,2 75 24 0,0
25.09.2020 12:00:00 10,5 5,5 - - 16 9 - - NW 1008,5 60 48 0,0
25.09.2020 11:00:00 9,5 3,2 - - 28 15 48 26 NNW 1007,8 75 60 0,0
25.09.2020 10:00:00 7,3 4,5 13,0 13,7 18 10 - - NNW 1007,6 50 36 0,0
25.09.2020 09:00:00 7,5 3,8 - - 16 9 - - NNW 1006,5 60 48 0,0
25.09.2020 08:00:00 6,4 3,4 - - 21 11 - - NNW 1005,2 50 24 0,0
25.09.2020 07:00:00 5,7 3,2 - - 18 10 - - NNW 1004,4 45 0 0,0
25.09.2020 06:00:00 6,2 4,3 - - 16 9 - - NNW 1003,4 45 0 0,0
25.09.2020 05:00:00 6,5 5,0 - - 16 9 - - N 1002,4 45 0 0,0
25.09.2020 04:00:00 6,4 4,9 - - 28 15 50 27 N 1001,2 50 0 0,0
25.09.2020 03:00:00 6,3 5,2 - - 29 16 46 25 N 1000,2 50 0 0,0
25.09.2020 02:00:00 5,6 4,8 - - 16 9 - - N 999,1 26 0 0,0
25.09.2020 01:00:00 5,4 4,5 - - 4 2 - - NNW 998,5 55 - 0,0
25.09.2020 00:00:00 4,9 4,2 - - 8 4 - - N 997,9 70 0 0,0
24.09.2020 23:00:00 5,2 3,7 - - 8 4 - - NNW 997,0 75 0 0,0
24.09.2020 22:00:00 4,6 3,5 - - 11 6 - - NW 996,3 75 0 0,0
24.09.2020 21:00:00 5,3 3,8 - - 11 6 - - NNW 995,2 75 0 0,0
24.09.2020 20:00:00 6,1 5,2 - - 9 5 - - NW 994,2 75 0 0,0
24.09.2020 19:00:00 6,5 5,2 - - 9 5 - - NNW 993,4 70 0 0,0
24.09.2020 18:00:00 6,4 4,6 - - 9 5 - - N 992,6 70 0 0,0
24.09.2020 17:00:00 7,5 5,0 - - 9 5 - - NE 992,0 55 24 0,0
24.09.2020 16:00:00 8,4 6,3 - - 9 5 - - SSE 991,7 60 12 0,0
24.09.2020 15:00:00 9,2 5,0 - - 11 6 - - SE 991,5 65 48 0,4
24.09.2020 14:00:00 6,0 3,5 - - 28 15 - - SSW 992,3 8 18 0,0
24.09.2020 13:00:00 10,3 3,9 - - 34 18 46 25 S 990,8 75 42 0,0
24.09.2020 12:00:00 7,3 4,1 - - 18 10 - - SW 991,5 60 24 0,2
24.09.2020 11:00:00 7,9 5,1 - - 28 15 - - SSW 991,2 40 36 0,0
24.09.2020 10:00:00 7,4 6,3 13,7 13,7 18 10 - - SSW 991,1 45 6 0,8
24.09.2020 09:00:00 6,0 5,9 - - 11 6 - - S 991,3 14 0 0,4
24.09.2020 08:00:00 5,3 5,1 - - 4 2 - - SW 991,5 2,2 0 0,4
24.09.2020 07:00:00 5,1 4,9 - - 5 3 - - SE 991,7 14 0 0,0
24.09.2020 06:00:00 5,0 4,8 - - 5 3 - - SE 992,5 28 0 3,0
24.09.2020 05:00:00 5,1 4,9 - - 5 3 - - ESE 993,6 10 0 1,2
24.09.2020 04:00:00 5,1 4,8 - - 5 3 - - E 994,5 26 0 0,0
24.09.2020 03:00:00 5,0 4,7 - - 4 2 - - SSE 995,8 75 0 0,0
24.09.2020 02:00:00 5,6 4,7 - - 4 2 - - SW 996,4 75 0 0,0
24.09.2020 01:00:00 5,6 4,7 - - 8 4 - - W 997,5 9 - 0,0
24.09.2020 00:00:00 4,9 3,3 - - 11 6 - - SW 998,0 50 0 0,0
23.09.2020 23:00:00 5,3 3,1 - - 16 9 - - W 998,4 55 0 0,0
23.09.2020 22:00:00 5,9 3,6 - - 21 11 - - WSW 998,5 60 0 0,0
23.09.2020 21:00:00 6,6 4,3 - - 18 10 - - W 998,7 65 0 0,0
23.09.2020 20:00:00 6,7 3,8 - - 4 2 - - WSW 998,6 75 0 0,0
23.09.2020 19:00:00 8,7 6,0 - - 4 2 - - W 998,3 75 0 0,0
23.09.2020 18:00:00 9,0 6,0 - - 13 7 - - NNW 998,2 75 0 0,0
23.09.2020 17:00:00 9,6 6,5 - - 13 7 - - NNW 998,5 70 0 0,0
23.09.2020 16:00:00 9,9 7,5 - - 9 5 - - N 998,9 60 0 0,0
23.09.2020 15:00:00 10,7 7,2 - - 11 6 - - NNW 999,1 70 0 0,0
23.09.2020 14:00:00 10,8 8,5 - - 11 6 - - N 999,1 60 0 0,0
23.09.2020 13:00:00 10,5 9,0 - - 13 7 - - NNW 999,6 55 12 0,0
23.09.2020 12:00:00 11,1 9,2 - - 15 8 - - NNW 999,3 70 6 0,0
23.09.2020 11:00:00 10,5 9,4 - - 15 8 - - N 999,4 70 0 0,0
23.09.2020 10:00:00 10,3 9,8 14,2 13,9 13 7 - - NNW 999,1 60 0 0,2
23.09.2020 09:00:00 9,6 9,3 - - 13 7 - - NW 999,4 3,1 0 1,6
23.09.2020 08:00:00 9,9 9,6 - - 13 7 - - NNW 999,1 5 0 0,6
23.09.2020 07:00:00 10,7 10,4 - - 8 4 - - NNW 998,9 2,5 0 2,6
23.09.2020 06:00:00 11,3 11,0 - - 5 3 - - S 999,2 1,0 0 1,4
23.09.2020 05:00:00 11,5 11,1 - - 8 4 - - SSW 999,4 9 0 0,2
23.09.2020 04:00:00 11,7 11,1 - - 13 7 - - SSW 999,9 19 0 0,0
23.09.2020 03:00:00 12,0 11,5 - - 15 8 - - SSW 1000,7 23 0 0,0
23.09.2020 02:00:00 11,5 10,9 - - 13 7 - - SSW 1001,3 22 0 0,0
23.09.2020 01:00:00 12,1 11,7 - - 24 13 - - SW 1001,4 19 - 0,2
23.09.2020 00:00:00 12,3 12,0 - - 15 8 - - SSW 1001,9 11 0 0,2
22.09.2020 23:00:00 12,3 11,9 - - 22 12 - - SSW 1002,3 19 0 0,4
22.09.2020 22:00:00 12,4 12,1 - - 21 11 - - SSW 1002,9 14 0 0,2
22.09.2020 21:00:00 12,4 12,0 - - 28 15 - - SW 1003,3 2,5 0 0,4
22.09.2020 20:00:00 12,8 11,9 - - 21 11 - - SSW 1003,5 14 0 0,0
22.09.2020 19:00:00 12,6 12,1 - - 26 14 - - SSW 1004,0 5 0 0,0
22.09.2020 18:00:00 12,5 12,0 - - 24 13 - - SW 1004,3 11 0 0,0
22.09.2020 17:00:00 12,6 12,3 - - 28 15 - - SW 1004,9 14 0 0,0
22.09.2020 16:00:00 12,6 12,3 - - 21 11 - - SSW 1005,9 3,0 0 0,0
22.09.2020 15:00:00 13,2 12,6 - - 24 13 - - SW 1006,5 2,4 0 0,0
22.09.2020 14:00:00 14,1 12,4 - - 28 15 - - SW 1006,8 6 18 0,0
22.09.2020 13:00:00 15,4 13,0 - - 24 13 - - SW 1007,1 9 48 0,0
22.09.2020 12:00:00 13,9 13,0 - - 24 13 - - SW 1007,9 6 0 0,0
22.09.2020 11:00:00 12,4 12,2 - - 21 11 - - SW 1008,9 1,3 0 0,0
22.09.2020 10:00:00 12,2 12,0 14,2 13,9 22 12 48 26 SW 1009,4 2,4 0 0,0
22.09.2020 09:00:00 12,4 11,5 - - 31 17 46 25 SW 1009,5 5 36 0,0
22.09.2020 08:00:00 12,0 11,5 - - 22 12 - - WSW 1009,9 4,7 0 0,0
22.09.2020 07:00:00 11,3 10,8 - - 11 6 - - WSW 1010,5 4,6 0 0,0
22.09.2020 06:00:00 11,7 11,0 - - 9 5 - - WSW 1010,8 6 0 0,0
22.09.2020 05:00:00 12,3 11,4 - - 5 3 - - W 1011,3 8 0 0,0
22.09.2020 04:00:00 12,7 11,8 - - 4 2 - - W 1012,1 9 0 0,0
22.09.2020 03:00:00 12,5 11,7 - - 5 3 - - WSW 1012,9 8 0 0,0
22.09.2020 02:00:00 12,3 11,4 - - 13 7 - - SW 1013,5 9 0 0,0
22.09.2020 01:00:00 12,3 11,4 - - 8 4 - - SW 1014,4 8 - 0,0
22.09.2020 00:00:00 12,0 10,6 - - 5 3 - - SSW 1015,0 7 0 0,0
21.09.2020 23:00:00 13,0 11,3 - - 2 1 - - WNW 1015,3 13 0 0,0
21.09.2020 22:00:00 14,2 12,2 - - 4 2 - - NW 1015,4 20 0 0,0
21.09.2020 21:00:00 14,8 12,0 - - 4 2 - - WNW 1015,7 22 0 0,0
21.09.2020 20:00:00 14,2 11,6 - - 5 3 - - W 1015,6 19 0 0,0
21.09.2020 19:00:00 16,1 12,8 - - 13 7 - - W 1015,5 22 42 0,0
21.09.2020 18:00:00 18,4 13,5 - - 11 6 - - SW 1015,5 27 60 0,0
21.09.2020 17:00:00 20,0 14,5 - - 13 7 - - SW 1015,4 28 60 0,0

tt = temperature
td = dewpoint
tt -20cm = temperature -20cm
tt -100cm = temperature -100cm
ff = wind speed
fx = gusts
dd = wind direction
ppp = reduced air pressure
vv = visibility
sd = sunshine duration
rr = precipitation

Next stations